Elbow Lake, MN

3:49 PM CST on November 16, 2019 (GMT -0600)
Elbow Lake

Weather History for KY63 - October, 2019

Change the Weather History Date:

Sunday, October 20, 2019

  Actual Average (WUND) Record (WUND)
Temperature  
Mean Temperature 44 °F -  
Max Temperature 56 °F - - (-1)
Min Temperature 33 °F - - (-1)
Degree Days  
Heating Degree Days 20    
Moisture  
Dew Point 36 °F    
Average Humidity 67    
Maximum Humidity 93    
Minimum Humidity 47    
Precipitation  
Precipitation 0.00 in - - ()
Sea Level Pressure  
Sea Level Pressure 29.75 in    
Wind  
Wind Speed 7 mph (ESE)    
Max Wind Speed 21 mph    
Max Gust Speed 30 mph    
Visibility 10 miles    
Events Rain    
Averages and records for this station are not official NWS values.
T = Trace of Precipitation, MM = Missing Value Source: NWS Daily Summary

Daily Weather History Graph

Daily Weather History Graph

Search for Another Location

Airport or City:

Astronomy

Oct. 20, 2019 Rise Set
Actual Time 7:47 AM CDT 6:29 PM CDT
Civil Twilight 7:16 AM CDT 6:59 PM CDT
Nautical Twilight 6:42 AM CDT 7:34 PM CDT
Astronomical Twilight 6:07 AM CDT 8:08 PM CDT
Moon 11:26 PM CDT (10/20) 2:29 PM CDT (10/20)
Length of Visible Light 11h 42m
Length of Day
10h 42m
Waning Gibbous, 59% of the Moon is Illuminated
Oct 20
Waning Gibbous
Oct 21
Last Quarter
Oct 27
New
Nov 4
First Quarter
Nov 12
Full

Hourly Weather History & Observations

Time (CDT) Temp. Windchill Dew Point Humidity Pressure Visibility Wind Dir Wind Speed Gust Speed Precip Events Conditions
12:02 AM 35.6 °F 30.7 °F 32.0 °F 87% 29.71 in 10.0 mi South 5.8 mph - N/A   Clear
12:22 AM 35.6 °F 30.7 °F 32.0 °F 87% 29.71 in 10.0 mi SSE 5.8 mph - N/A   Clear
12:42 AM 33.8 °F 27.7 °F 32.0 °F 93% 29.71 in 10.0 mi South 6.9 mph - N/A   Clear
1:02 AM 39.2 °F 37.0 °F 32.0 °F 75% 29.71 in 10.0 mi ESE 3.5 mph - N/A   Clear
1:22 AM 35.6 °F 30.7 °F 32.0 °F 87% 29.71 in 10.0 mi East 5.8 mph - N/A   Clear
1:42 AM 37.4 °F 33.8 °F 32.0 °F 81% 29.71 in 10.0 mi ESE 4.6 mph - N/A   Clear
2:02 AM 35.6 °F 30.7 °F 32.0 °F 87% 29.71 in 10.0 mi East 5.8 mph - N/A   Clear
2:22 AM 39.2 °F 37.0 °F 33.8 °F 81% 29.72 in 10.0 mi East 3.5 mph - N/A   Clear
2:42 AM 35.6 °F 30.7 °F 32.0 °F 87% 29.72 in 10.0 mi East 5.8 mph - N/A   Clear
3:02 AM 37.4 °F 32.1 °F 32.0 °F 81% 29.73 in 10.0 mi East 6.9 mph - N/A   Clear
3:22 AM 39.2 °F 35.9 °F 32.0 °F 75% 29.73 in 10.0 mi ESE 4.6 mph - N/A   Clear
3:42 AM 35.6 °F 30.7 °F 30.2 °F 81% 29.73 in 10.0 mi East 5.8 mph - N/A   Clear
4:02 AM 35.6 °F 31.7 °F 30.2 °F 81% 29.73 in 10.0 mi ESE 4.6 mph - N/A   Clear
4:22 AM 37.4 °F 34.9 °F 32.0 °F 81% 29.73 in 10.0 mi ESE 3.5 mph - N/A   Clear
4:42 AM 37.4 °F - 35.6 °F 93% 29.74 in 10.0 mi Calm Calm - N/A   Clear
5:02 AM 33.8 °F 29.6 °F 30.2 °F 87% 29.74 in 10.0 mi ESE 4.6 mph - N/A   Clear
5:22 AM 35.6 °F 31.7 °F 32.0 °F 87% 29.75 in 10.0 mi ESE 4.6 mph - N/A   Clear
5:42 AM 33.8 °F 29.6 °F 30.2 °F 87% 29.75 in 10.0 mi ESE 4.6 mph - N/A   Clear
6:02 AM 35.6 °F 31.7 °F 32.0 °F 87% 29.76 in 10.0 mi ESE 4.6 mph - N/A   Clear
6:22 AM 35.6 °F 31.7 °F 30.2 °F 81% 29.76 in 10.0 mi ESE 4.6 mph - N/A   Clear
6:42 AM 35.6 °F 29.9 °F 30.2 °F 81% 29.77 in 10.0 mi East 6.9 mph - N/A   Clear
7:02 AM 35.6 °F 30.7 °F 32.0 °F 87% 29.77 in 10.0 mi ESE 5.8 mph - N/A   Clear
7:22 AM 37.4 °F 32.1 °F 32.0 °F 81% 29.77 in 10.0 mi SSE 6.9 mph - N/A   Clear
7:42 AM 35.6 °F 30.7 °F 32.0 °F 87% 29.78 in 10.0 mi SSE 5.8 mph - N/A   Clear
8:02 AM 37.4 °F 31.4 °F 33.8 °F 87% 29.77 in 10.0 mi SSE 8.1 mph - N/A   Clear
8:22 AM 37.4 °F 32.1 °F 33.8 °F 87% 29.78 in 10.0 mi SE 6.9 mph - N/A   Clear
8:42 AM 39.2 °F 33.6 °F 32.0 °F 75% 29.78 in 10.0 mi SE 8.1 mph - N/A   Clear
9:02 AM 39.2 °F 35.9 °F 33.8 °F 81% 29.79 in 10.0 mi ESE 4.6 mph - N/A   Clear
9:22 AM 42.8 °F 40.1 °F 33.8 °F 70% 29.79 in 10.0 mi SE 4.6 mph - N/A   Clear
9:42 AM 44.6 °F 42.2 °F 35.6 °F 71% 29.80 in 10.0 mi ESE 4.6 mph - N/A   Clear
10:02 AM 46.4 °F 43.5 °F 37.4 °F 71% 29.79 in 10.0 mi ESE 5.8 mph - N/A   Clear
10:22 AM 46.4 °F 43.5 °F 37.4 °F 71% 29.79 in 10.0 mi ESE 5.8 mph - N/A   Clear
10:42 AM 48.2 °F - 37.4 °F 66% 29.80 in 10.0 mi ESE 5.8 mph - N/A   Clear
11:02 AM 50.0 °F - 39.2 °F 66% 29.81 in 10.0 mi ESE 4.6 mph - N/A   Clear
11:22 AM 51.8 °F - 39.2 °F 62% 29.81 in 10.0 mi ESE 4.6 mph - N/A   Clear
11:42 AM 53.6 °F - 39.2 °F 58% 29.81 in 10.0 mi ESE 5.8 mph - N/A   Clear
12:02 PM 53.6 °F - 41.0 °F 62% 29.81 in 10.0 mi East 8.1 mph - N/A   Clear
12:07 PM - - - N/A% 29.81 in 10.0 mi ESE 8.1 mph - N/A   Clear
12:16 PM 55.0 °F - 38.8 °F 54% 29.81 in 10.0 mi ESE 8.1 mph - N/A   Clear
12:35 PM 55.4 °F - 39.0 °F 54% 29.81 in 10.0 mi ESE 6.9 mph - N/A   Clear
12:55 PM 55.6 °F - 36.3 °F 48% 29.80 in 10.0 mi ESE 10.4 mph - N/A   Clear
1:15 PM 55.9 °F - 36.0 °F 47% 29.79 in 10.0 mi ESE 10.4 mph - N/A   Scattered Clouds
1:35 PM 56.3 °F - 37.2 °F 49% 29.79 in 10.0 mi ESE 10.4 mph - N/A   Mostly Cloudy
1:56 PM 55.6 °F - 39.4 °F 55% 29.79 in 10.0 mi SSE 9.2 mph - N/A   Mostly Cloudy
2:15 PM 55.6 °F - 38.1 °F 52% 29.79 in 10.0 mi South 10.4 mph - N/A   Mostly Cloudy
2:35 PM 54.9 °F - 38.5 °F 54% 29.78 in 10.0 mi ESE 4.6 mph - N/A   Mostly Cloudy
2:55 PM 55.8 °F - 38.8 °F 53% 29.77 in 10.0 mi SE 9.2 mph - N/A   Scattered Clouds
3:15 PM 56.3 °F - 37.9 °F 50% 29.77 in 10.0 mi SE 10.4 mph - N/A   Mostly Cloudy
3:35 PM 54.9 °F - 39.9 °F 57% 29.76 in 10.0 mi SE 11.5 mph - N/A   Mostly Cloudy
3:56 PM 56.8 °F - 38.1 °F 50% 29.76 in 10.0 mi SE 10.4 mph - N/A   Mostly Cloudy
4:16 PM 56.5 °F - 38.7 °F 51% 29.75 in 10.0 mi SSE 11.5 mph - N/A   Scattered Clouds
4:35 PM 56.7 °F - 37.6 °F 49% 29.75 in 10.0 mi East 11.5 mph - N/A   Mostly Cloudy
4:55 PM 55.9 °F - 38.3 °F 52% 29.74 in 10.0 mi SE 9.2 mph - N/A   Overcast
5:15 PM 55.4 °F - 38.3 °F 53% 29.74 in 10.0 mi SE 8.1 mph - N/A   Overcast
5:36 PM 55.2 °F - 37.6 °F 52% 29.75 in 10.0 mi ESE 8.1 mph - N/A   Overcast
5:55 PM 55.4 °F - 37.6 °F 51% 29.75 in 10.0 mi SE 9.2 mph - N/A   Overcast
6:15 PM 55.0 °F - 38.1 °F 53% 29.74 in 10.0 mi East 10.4 mph - N/A   Overcast
6:35 PM 54.0 °F - 38.8 °F 57% 29.75 in 10.0 mi SE 11.5 mph - N/A   Overcast
6:55 PM 54.5 °F - 38.3 °F 54% 29.75 in 10.0 mi SE 11.5 mph - N/A   Overcast
7:16 PM 55.6 °F - 37.2 °F 50% 29.72 in 10.0 mi NE 11.5 mph 18.4 mph N/A   Overcast
7:35 PM 55.8 °F - 36.9 °F 49% 29.73 in 10.0 mi ESE 10.4 mph - N/A   Mostly Cloudy
7:56 PM 54.5 °F - 37.4 °F 52% 29.73 in 10.0 mi ESE 10.4 mph - N/A   Scattered Clouds
8:15 PM 54.5 °F - 37.6 °F 53% 29.73 in 10.0 mi East 12.7 mph 16.1 mph N/A   Scattered Clouds
8:35 PM 54.5 °F - 37.6 °F 53% 29.72 in 10.0 mi East 11.5 mph - N/A   Mostly Cloudy
8:55 PM 54.5 °F - 37.4 °F 52% 29.72 in 10.0 mi East 10.4 mph 18.4 mph N/A   Mostly Cloudy
9:16 PM 54.0 °F - 37.4 °F 54% 29.72 in 10.0 mi East 12.7 mph 17.3 mph N/A   Overcast
9:36 PM 54.0 °F - 37.6 °F 54% 29.71 in 10.0 mi SE 13.8 mph 19.6 mph N/A   Overcast
9:55 PM 54.0 °F - 37.8 °F 54% 29.71 in 10.0 mi SE 15.0 mph 23.0 mph N/A   Overcast
10:16 PM 53.8 °F - 37.8 °F 55% 29.72 in 10.0 mi SE 13.8 mph - N/A   Overcast
10:35 PM 54.0 °F - 37.9 °F 55% 29.71 in 10.0 mi SE 11.5 mph 20.7 mph N/A   Overcast
10:55 PM 53.1 °F - 38.3 °F 57% 29.72 in 10.0 mi SE 10.4 mph - N/A   Overcast
11:16 PM 52.7 °F - 39.7 °F 61% 29.74 in 10.0 mi ESE 12.7 mph 18.4 mph N/A   Drizzle
11:35 PM 51.4 °F - 42.1 °F 70% 29.75 in 10.0 mi ESE 20.7 mph 29.9 mph N/A Rain Rain
11:55 PM 50.0 °F - 41.9 °F 74% 29.74 in 10.0 mi ESE 6.9 mph - N/A Rain Light Rain
11:56 PM 50.0 °F - 41.9 °F 74% 29.74 in 10.0 mi ESE 9.2 mph - N/A Rain Light Rain